STARLINK-3877, 52355

Orbit data source: Space-Track

STARLINK-3877, 52355 is a payload satellite owned by SpaceX/Seattle (US) in LEO that was launched on Fri, 29 Apr 2022 UTC via an FALCON 9 launch vehicle from the Air Force Eastern Test Range (AFETR). Payload-class satellites include a variety of spacecraft equipped with specific instruments for various scientific and technological missions. These include communications satellites like Starlink; space stations such as the ISS; scientific satellites like the Hubble; Earth observation satellites from companies like Planet Labs, Umbra, and HawkEye 360; GPS; miniature CubeSats for education and research; and military/defense satellites.

Loading next visibility...
Identifier
52355, 2022-045AA
Orbit
LEO
Country
Flag of USUS
Related business
Manufacturer
SpaceX/Seattle
Mission
Operational Commercial Communications
Bus & Motor
STARLINK, Unknown motor
Mass
297 kg wet, ~275 kg dry
Launch date (UTC)
2022-04-29 (4 years ago)
Launch vehicle
FALCON 9
Launch site
Air Force Eastern Test Range (AFETR)
Object type
Payload
Rocket body
Debris
Shape & HBR
Box + 1 Pan, 10.1 m
Radar Cross Section
11.087 m², Large (>1 m²)

Expand to show TLE details & history
Last TLE update: 7 hours ago

TLE from 7 hours ago
0 STARLINK-3877
1 52355U 22045AA  26119.82626416  .00000314  00000-0  37817-4 0  9995
2 52355  53.2184 329.5617 0001280  90.0535 270.0604 15.08836744223508
Epoch: 2026-04-29T19:49Z
TLE epoch observation values (Epoch: 2026-04-29T19:49:49.223Z)
Latitude
-0.00001°
Longitude
174.32494°
Altitude
540.65 km
Speed
7.593 km/s
True Right ascension
21h 58m 14s
True Declination
0° 00' 00"
Sunlit
Object was in daylight at epoch
Visualization orbit readout
Latitude
Unknown
Longitude
Unknown
Altitude
Unknown
Speed
Unknown
Apparent Right ascension
Unknown
Apparent Declination
Unknown
Sunlit
N/A
Visualization observer readout
Local Sidereal Time
10:29:39
Azimuth
Unknown
Elevation
Unknown
Doppler factor
Unknown
Orbital elements
Apogee altitude
540.884 km
Perigee altitude
539.113 km
Semi-major axis
6,918.135 km
Eccentricity
0.00013
Inclination
53.2184°
RAAN
329.5617°
Arg. of periapsis
90.0535°
True anomaly
270.04573°
Mean anomaly
270.0604°
Eccentric anomaly
270.05307°
Mean motion
3.7719 °/min
Orbital period
95.44 mins
BSTAR
0.000037817
Loading maneuver chart data...
Computing Atmospheric mass density...
Loading historical data...
Loading historical data...
Loading historical data...
Loading historical data...
Loading historical data...
Loading historical data...
Loading historical data...

Documentation

Showing up to 5 results
|